Stations météo

Publicité
Cap Corse, France (7785): Température de l'air & dewpoint: 19.06.2018 06:00:00 - 25.06.2018 06:00:00 (CEST)Cap Corse, France (7785): Vitesse du vent & gusts: 19.06.2018 06:00:00 - 25.06.2018 06:00:00 (CEST)Cap Corse, France (7785): Direction du vent: 19.06.2018 06:00:00 - 25.06.2018 06:00:00 (CEST)Cap Corse, France (7785): reduced air pressure: 19.06.2018 06:00:00 - 25.06.2018 06:00:00 (CEST)Cap Corse, France (7785): visibility: 19.06.2018 06:00:00 - 25.06.2018 06:00:00 (CEST)Cap Corse, France (7785): Quantités de précipitations: 19.06.2018 06:00:00 - 25.06.2018 06:00:00 (CEST)
Date & Time tt [°C] td [°C] ff [km/h] ff [knt] fx [km/h] fx [knt] dd ppp [hPa] vv [km] rr [mm]
25.06.2018 06:00:00 - - - - - - - - - -
25.06.2018 05:00:00 20,8 16,8 18 10 39 21 SW 1014,2 - -
25.06.2018 04:00:00 21,4 16,6 24 13 41 22 SW 1014,1 - 0,0
25.06.2018 03:00:00 21,6 16,8 22 12 34 18 SW 1014,4 - 0,0
25.06.2018 02:00:00 21,2 15,5 15 8 28 15 SW 1014,9 - -
25.06.2018 01:00:00 21,2 15,9 5 3 21 11 W 1015,3 - 0,0
25.06.2018 00:00:00 20,3 15,7 5 3 11 6 ESE 1015,7 - 0,0
24.06.2018 23:00:00 20,6 16,4 8 4 11 6 ENE 1016,0 - -
24.06.2018 22:00:00 21,1 16,7 7 4 13 7 E 1015,6 - 0,0
24.06.2018 21:00:00 22,4 16,0 8 4 20 11 W 1015,3 - 0,0
24.06.2018 20:00:00 23,6 16,6 16 9 29 16 W 1015,1 30 -
24.06.2018 19:00:00 25,6 17,3 15 8 29 16 W 1015,2 - 0,0
24.06.2018 18:00:00 25,2 16,1 6 4 24 13 WNW 1015,2 - 0,0
24.06.2018 17:00:00 25,1 14,5 16 9 41 22 ESE 1015,1 30 -
24.06.2018 16:00:00 25,0 14,8 26 14 41 22 E 1015,3 - 0,0
24.06.2018 15:00:00 25,2 15,5 24 13 42 23 E 1015,4 - 0,0
24.06.2018 14:00:00 25,6 15,6 28 15 39 21 E 1015,8 30 0,0
24.06.2018 13:00:00 27,1 13,1 16 9 29 16 E 1016,5 - 0,0
24.06.2018 12:00:00 26,5 13,6 13 7 31 17 E 1016,7 - 0,0
24.06.2018 11:00:00 26,4 14,8 18 10 34 18 ESE 1016,5 30 -
24.06.2018 10:00:00 25,4 13,9 22 12 34 18 ESE 1016,7 - 0,0
24.06.2018 09:00:00 24,6 14,4 16 9 35 19 SE 1016,6 - 0,0
24.06.2018 08:00:00 23,6 15,9 26 14 42 23 SE 1016,6 12 -
24.06.2018 07:00:00 22,5 15,6 29 16 48 26 SE 1016,3 - 0,0
24.06.2018 06:00:00 21,7 15,8 29 16 45 24 SE 1016,1 - 0,0
24.06.2018 05:00:00 21,9 14,8 29 16 44 24 SE 1016,0 12 -
24.06.2018 04:00:00 21,8 14,2 22 12 28 15 SE 1016,2 - 0,0
24.06.2018 03:00:00 20,2 13,2 2 1 15 8 SE 1016,7 - 0,0
24.06.2018 02:00:00 21,3 14,2 9 5 18 10 E 1016,8 - -
24.06.2018 01:00:00 22,1 15,9 13 7 22 12 ESE 1017,2 - 0,0
24.06.2018 00:00:00 21,9 17,1 13 7 22 12 E 1017,3 - 0,0
23.06.2018 23:00:00 21,5 16,7 14 8 21 12 E 1017,1 - 0,0
23.06.2018 22:00:00 21,6 16,3 15 8 24 13 E 1016,6 - 0,0
23.06.2018 21:00:00 22,3 16,3 12 6 22 12 E 1016,0 - 0,0
23.06.2018 20:00:00 23,2 16,7 13 7 29 16 E 1015,8 30 -
23.06.2018 19:00:00 23,9 17,2 24 13 34 18 NE 1015,7 - 0,0
23.06.2018 18:00:00 24,6 16,1 26 14 31 17 NE 1016,1 - 0,0
23.06.2018 17:00:00 25,3 15,0 23 12 31 17 ENE 1016,6 30 0,0
23.06.2018 16:00:00 25,6 13,8 22 12 29 16 ENE 1016,6 - 0,0
23.06.2018 15:00:00 25,5 13,7 22 12 35 19 E 1016,9 - 0,0
23.06.2018 14:00:00 25,2 12,8 24 13 37 20 E 1017,2 30 -
23.06.2018 13:00:00 24,8 13,0 28 15 41 22 E 1017,6 - 0,0
23.06.2018 12:00:00 23,4 13,0 29 16 44 24 E 1017,5 - 0,0
23.06.2018 11:00:00 23,0 13,2 29 16 48 26 E 1017,2 30 -
23.06.2018 10:00:00 23,3 12,9 34 18 52 28 E 1017,1 - 0,0
23.06.2018 09:00:00 21,9 12,7 37 20 55 30 E 1017,0 - 0,0
23.06.2018 08:00:00 21,7 13,8 39 21 59 32 E 1016,3 15 -
23.06.2018 07:00:00 22,6 15,7 37 20 63 34 E 1016,0 - 0,0
23.06.2018 06:00:00 22,2 16,2 42 23 64 34 E 1015,4 - 0,0
23.06.2018 05:00:00 22,4 17,5 41 22 59 32 E 1014,6 15 -
23.06.2018 04:00:00 22,9 19,3 21 11 42 23 E 1014,7 - 0,0
23.06.2018 03:00:00 22,7 19,3 13 7 26 14 ESE 1014,8 - 0,0
23.06.2018 02:00:00 23,6 18,9 18 10 29 16 E 1014,5 - -
23.06.2018 01:00:00 23,5 19,2 13 7 24 13 E 1014,6 - 0,0
23.06.2018 00:00:00 23,2 18,9 16 8 28 15 E 1014,2 - 0,0
22.06.2018 23:00:00 23,2 18,3 18 10 34 18 E 1013,5 - -
22.06.2018 22:00:00 23,2 18,7 21 11 35 19 E 1012,9 - 0,0
22.06.2018 21:00:00 23,5 19,4 22 12 35 19 E 1012,4 - 0,0
22.06.2018 20:00:00 24,0 19,3 22 12 37 20 E 1011,8 15 -
22.06.2018 19:00:00 24,6 19,2 26 14 41 22 E 1011,3 - 0,0
22.06.2018 18:00:00 25,1 19,0 28 15 39 21 E 1011,2 - 0,0
22.06.2018 17:00:00 25,9 20,0 18 10 29 16 E 1011,2 15 -
22.06.2018 16:00:00 26,1 20,7 15 8 22 12 ENE 1011,8 - 0,0
22.06.2018 15:00:00 26,2 20,3 13 7 34 18 ENE 1012,0 - 0,0
22.06.2018 14:00:00 25,6 18,8 28 15 52 28 E 1012,2 15 -
22.06.2018 13:00:00 28,1 19,9 21 11 40 21 ESE 1011,6 - 0,0
22.06.2018 12:00:00 28,6 20,1 24 13 48 26 SSE 1011,5 - 0,0
22.06.2018 11:00:00 26,3 18,4 31 17 48 26 SSE 1011,9 15 -
22.06.2018 10:00:00 26,5 18,9 34 18 44 24 SE 1012,0 - 0,0
22.06.2018 09:00:00 25,8 16,1 30 16 41 22 SE 1012,2 - 0,0
22.06.2018 08:00:00 24,9 13,8 16 9 22 12 SE 1012,0 18 -
22.06.2018 07:00:00 24,6 13,8 5 3 28 15 ESE 1012,4 - 0,0
22.06.2018 06:00:00 24,8 12,7 13 7 42 23 WSW 1012,6 - 0,0
22.06.2018 05:00:00 24,8 12,7 18 10 48 26 WSW 1012,5 18 -
22.06.2018 04:00:00 24,8 12,4 24 13 61 33 SW 1012,9 - 0,0
22.06.2018 03:00:00 25,1 13,0 28 15 54 29 SW 1013,5 - 0,0
22.06.2018 02:00:00 25,5 12,7 21 11 55 30 WSW 1014,1 - -
22.06.2018 01:00:00 25,6 12,8 28 15 72 39 SW 1014,2 - 0,0
22.06.2018 00:00:00 25,1 13,0 29 16 55 30 SW 1014,7 - 0,0
21.06.2018 23:00:00 24,7 13,6 31 17 65 35 SW 1014,6 - -
21.06.2018 22:00:00 23,8 15,6 34 18 70 38 SW 1014,6 - 0,0
21.06.2018 21:00:00 23,6 18,0 31 17 52 28 SW 1014,4 - 0,0
21.06.2018 20:00:00 24,7 18,9 28 15 54 29 WSW 1014,8 - -
21.06.2018 19:00:00 26,6 15,3 22 12 54 29 WSW 1014,6 - 0,0
21.06.2018 18:00:00 26,9 15,9 31 17 55 30 SW 1014,7 - 0,0
21.06.2018 17:00:00 27,7 15,7 18 10 37 20 W 1015,5 18 -
21.06.2018 16:00:00 27,4 17,3 18 10 39 21 W 1015,9 - 0,0
21.06.2018 15:00:00 26,8 19,2 21 11 31 17 W 1016,6 - 0,0
21.06.2018 14:00:00 26,7 19,1 13 7 16 9 W 1016,8 18 -
21.06.2018 13:00:00 26,5 18,9 13 7 15 8 WNW 1017,3 - 0,0
21.06.2018 12:00:00 26,5 18,9 9 5 13 7 W 1017,5 - 0,0
21.06.2018 11:00:00 25,9 19,3 8 4 11 6 W 1017,6 18 -
21.06.2018 10:00:00 25,2 19,3 11 6 13 7 W 1017,5 - 0,0
21.06.2018 09:00:00 25,2 19,3 11 6 16 9 W 1017,4 - 0,0
21.06.2018 08:00:00 24,9 18,3 12 6 20 11 W 1017,4 - 0,0
21.06.2018 07:00:00 24,5 18,0 11 6 28 15 W 1017,4 - 0,0
21.06.2018 06:00:00 24,3 13,5 13 7 29 16 W 1017,0 - 0,0
21.06.2018 05:00:00 23,6 13,5 22 12 34 18 SW 1017,1 - -
21.06.2018 04:00:00 24,0 14,4 22 12 31 17 SW 1017,3 - 0,0
21.06.2018 03:00:00 23,5 16,5 15 8 34 18 WSW 1017,7 - 0,0
21.06.2018 02:00:00 23,9 15,1 8 4 18 10 SSE 1018,0 - -
21.06.2018 01:00:00 23,6 14,9 8 4 15 8 ESE 1018,3 - 0,0
21.06.2018 00:00:00 25,0 13,2 8 4 18 10 W 1018,4 - 0,0
20.06.2018 23:00:00 24,9 12,8 16 9 24 13 SE 1018,4 - -
20.06.2018 22:00:00 23,2 15,5 18 10 24 13 ESE 1018,3 - 0,0
20.06.2018 21:00:00 24,4 15,6 13 7 28 15 ESE 1017,7 - 0,0
20.06.2018 20:00:00 25,6 17,0 18 10 34 18 E 1017,3 - -
20.06.2018 19:00:00 26,0 16,3 22 12 31 17 E 1017,2 - 0,0
20.06.2018 18:00:00 25,9 17,5 26 14 35 19 ENE 1017,1 - 0,0
20.06.2018 17:00:00 27,9 13,4 22 12 34 18 E 1017,7 30 -
20.06.2018 16:00:00 28,2 13,3 22 12 39 21 E 1018,1 - 0,0
20.06.2018 15:00:00 28,4 13,1 24 13 41 22 E 1018,3 - 0,0
20.06.2018 14:00:00 27,5 14,5 22 12 31 17 E 1018,6 30 -
20.06.2018 13:00:00 26,5 17,0 18 10 28 15 E 1019,2 - 0,0
20.06.2018 12:00:00 26,3 17,4 16 9 31 17 E 1019,4 - 0,0
20.06.2018 11:00:00 26,4 17,5 22 12 37 20 E 1019,3 30 0,0
20.06.2018 10:00:00 25,8 15,5 28 15 46 25 E 1019,2 - 0,0
20.06.2018 09:00:00 26,5 13,9 27 15 46 25 E 1018,9 - 0,0
20.06.2018 08:00:00 25,9 14,0 24 13 42 23 E 1018,9 18 -
20.06.2018 07:00:00 24,7 15,3 13 7 26 14 E 1018,9 - 0,0
20.06.2018 06:00:00 23,3 14,3 16 9 28 15 ESE 1018,8 - 0,0
20.06.2018 05:00:00 23,9 13,1 18 10 35 19 ESE 1018,7 18 -
20.06.2018 04:00:00 23,8 15,8 19 11 28 15 E 1018,6 - 0,0
20.06.2018 03:00:00 24,0 15,8 15 8 28 15 E 1018,8 - 0,0
20.06.2018 02:00:00 24,0 16,0 18 10 29 16 E 1018,9 - -
20.06.2018 01:00:00 23,9 17,9 16 9 26 14 ESE 1019,1 - 0,0
20.06.2018 00:00:00 24,3 16,0 15 8 24 13 E 1019,0 - 0,0
19.06.2018 23:00:00 24,2 14,9 15 8 26 14 ESE 1018,9 - -
19.06.2018 22:00:00 25,8 10,0 9 5 16 9 E 1018,3 - 0,0
19.06.2018 21:00:00 26,3 10,4 9 5 18 10 E 1017,5 - 0,0
19.06.2018 20:00:00 25,4 15,7 5 3 13 7 ENE 1017,6 30 -
19.06.2018 19:00:00 26,6 15,3 8 4 11 6 NE 1017,5 - 0,0
19.06.2018 18:00:00 - - - - - - - - - -
19.06.2018 17:00:00 26,6 20,2 8 4 15 8 ENE 1018,3 30 -
19.06.2018 16:00:00 27,0 19,1 11 6 18 10 ENE 1018,4 - 0,0
19.06.2018 15:00:00 27,4 17,8 16 9 22 12 E 1018,5 - 0,0
19.06.2018 14:00:00 27,3 19,1 15 8 21 11 ENE 1019,0 - -
19.06.2018 13:00:00 27,2 17,4 15 8 31 17 ENE 1019,2 - 0,0
19.06.2018 12:00:00 27,3 15,6 23 12 40 21 E 1019,1 - 0,0
19.06.2018 11:00:00 27,9 15,2 22 12 37 20 E 1019,1 30 -
19.06.2018 10:00:00 26,1 16,4 22 12 39 21 E 1019,1 - 0,0
19.06.2018 09:00:00 27,1 15,5 21 11 31 17 E 1018,6 - 0,0
19.06.2018 08:00:00 26,2 15,0 15 8 28 15 E 1018,3 20 -
19.06.2018 07:00:00 25,0 15,3 13 7 21 11 ESE 1018,3 - 0,0
19.06.2018 06:00:00 22,6 15,2 9 5 18 10 E 1018,1 - 0,0

tt = Température de l'air
td = dewpoint
ff = Vitesse du vent
fx = gusts
dd = Direction du vent
ppp = reduced air pressure
vv = visibility
rr = Quantités de précipitations

stations d'obs. à proximité